Regional Weather Roundup
Issued by NWS

Home | Current Version | Previous Version | Graphics & Text | Print | Product List | Glossary On
Versions: 1 2 3 4 5 6 7 8 9 10 11 12 13 14 15 16 17 18 19 20 21 22 23 24 25 26 27 28 29 30 31 32 33 34 35 36 37 38 39 40 41 42 43 44 45 46 47 48 49 50
000
ASUS45 KPSR 252200
RWRAZ

ARIZONA HOURLY REGIONAL WEATHER ROUNDUP
NATIONAL WEATHER SERVICE PHOENIX AZ
300 PM MST MON MAY 25 2015

NOTE: FAIR INDICATES FEW OR NO CLOUDS BELOW 12,000 FEET WITH NO
SIGNIFICANT WEATHER AND/OR OBSTRUCTIONS TO VISIBILITY.

AZZ001>003-036-252300-
NORTHWEST ARIZONA

CITY           SKY/WX    TMP DP  RH WIND       PRES   REMARKS
KINGMAN        MOSUNNY   80  38  22 S12G22    29.96F
$$

AZZ004>008-015-016-018-252300-
NORTH CENTRAL ARIZONA

CITY           SKY/WX    TMP DP  RH WIND       PRES   REMARKS
GRAND CANYON   MOSUNNY   64  40  41 W9G18     30.09F
WILLIAMS       PTSUNNY   59  43  55 VRB5      30.18F
PRESCOTT       PTSUNNY   69  37  30 W9        30.04F
FLAGSTAFF      NOT AVBL
PAYSON         CLOUDY    68  37  32 SW12      30.07R
PAGE           CLOUDY    72  44  36 N5        29.95S
$$

AZZ009>014-017-252300-
NORTHEAST ARIZONA

CITY           SKY/WX    TMP DP  RH WIND       PRES   REMARKS
WINSLOW        NOT AVBL
SAINT JOHNS    PTSUNNY   70  35  27 W25G33    30.02F
WINDOW ROCK    CLOUDY    51  44  77 CALM      30.10F
$$

AZZ023-252300-
GREATER PHOENIX AREA

CITY           SKY/WX    TMP DP  RH WIND       PRES   REMARKS
PHOENIX        MOSUNNY   89  40  17 W13G18    29.85F
GLENDALE       MOSUNNY   90  37  15 S6G18     29.87F
DEER VALLEY    SUNNY     86  39  19 S13G22    29.86F
SCOTTSDALE     SUNNY     87  37  17 SW10G21   29.89F
MESA-FALCON    MOSUNNY   86  39  19 S9        29.87F
MESA-GATEWAY   MOSUNNY   84  41  21 NW9       29.90F
CHANDLER       MOSUNNY   88  39  18 SW12      29.87F
$$

AZZ027-028-252300-
SOUTHWEST MARICOPA COUNTY AND PINAL COUNTY

CITY           SKY/WX    TMP DP  RH WIND       PRES   REMARKS
CASA GRANDE    SUNNY     84  43  23 NW5       29.87F
$$

AZZ503-504-507>509-252300-
SOUTHEAST ARIZONA

CITY           SKY/WX    TMP DP  RH WIND       PRES   REMARKS
TUCSON         SUNNY     85  28  12 VRB7      29.94F
RYAN FIELD       N/A     86  36  16 E5        29.93
NOGALES        MOSUNNY   82  33  17 MISG      29.97F
SAFFORD        SUNNY     87  33  14 NW17G30   29.90F
$$

AZZ020-021-025-026-031-252300-
SOUTHWEST ARIZONA

CITY           SKY/WX    TMP DP  RH WIND       PRES   REMARKS
YUMA           NOT AVBL
$$

CAZ031-033-041-043-047-048-061-252300-
SOUTHERN CALIFORNIA

CITY           SKY/WX    TMP DP  RH WIND       PRES   REMARKS
DOWNTOWN L.A.  CLOUDY    70  55  59 CALM      29.96F
L.A. AIRPORT   PTSUNNY   66  55  67 W9        29.98F
SAN DIEGO      CLOUDY    64  54  69 NW7       30.00F
BURBANK        MOSUNNY   68  53  58 SE9       29.97F
ONTARIO        MOSUNNY   69  52  54 VRB5      29.97F
RIVERSIDE      MOSUNNY   71  53  52 MISG      29.96F
PALM SPRINGS   SUNNY     90  48  23 N13G20    29.85F
EL CENTRO NAS  SUNNY     91  44  19 SE7       29.82F
IMPERIAL       SUNNY     90  43  19 CALM      29.80F
BLYTHE         SUNNY     93  40  15 S16G22    29.82F
$$

NVZ020-UTZ003-252300-
SOUTHERN NEVADA-UTAH

CITY           SKY/WX    TMP DP  RH WIND       PRES   REMARKS
LAS VEGAS      NOT AVBL
SALT LAKE CITY PTSUNNY   70  42  36 NW8       29.94F
$$

NMZ009-TXZ055-252300-
NEW MEXICO-WEST TEXAS

CITY           SKY/WX    TMP DP  RH WIND       PRES   REMARKS
ALBUQUERQUE    CLOUDY    68  41  37 E3        29.97S
EL PASO        MOSUNNY   83  27  13 SW17G31   29.93F
$$


........................KEY........................
SKY/WX - SKY CONDITION/WEATHER
TMP    - TEMPERATURE IN FAHRENHEIT
DP     - DEW POINT IN FAHRENHEIT
RH     - RELATIVE HUMIDITY IN PERCENT
WIND   - DIRECTION AND SPEED IN MILES PER HOUR (MPH)
VRB    - VARIABLE WIND DIRECTION
PRES   - MEAN SEA LEVEL PRESSURE IN INCHES OF MERCURY
         F - FALLING PRESSURE   R - RISING PRESSURE
         S - STEADY PRESSURE
VSB    - VISIBILITY IN MILES
HX     - HEAT INDEX IN FAHRENHEIT
WCI    - WIND CHILL INDEX IN FAHRENHEIT
TC     - TEMPERATURE IN CELSIUS WHICH IS ALSO KNOWN AS
         TEMPERATURE IN CENTIGRADE
AFB    - AIR FORCE BASE
         LUKE AFB IS LUKE AIR FORCE BASE
         DAVIS-MONTHAN IS DAVIS-MONTHAN AIR FORCE BASE
NAS    - NAVAL AIR STATION
         EL CENTRO NAS IS EL CENTRO NAVAL AIR STATION
N/A    - NOT AVAILABLE




USA.gov is the U.S. government's official web portal to all federal, state and local government web resources and services.